cover

 

Get it on iTunes StoreListen on Apple Music

Ronski Speed

#Trackname / Key / BPM / Publish dateArtists, Remixers / Label
1 138 bpm, 5B / Eb major, 2018-12-17, Trance,  0  40
2 138 bpm, 5A / C minor, 2018-12-17, Trance,  0  40
3 134 bpm, 8B / C major, 2018-11-26, Trance,  0  10
4 138 bpm, 1A / Ab minor, 2018-11-19, Trance,  3  2
5 128 bpm, / , 2018-11-19, Trance,  0  2
6 134 bpm, 8B / C major, 2018-11-16, Psy-Trance,  0  12
7 132 bpm, 7A / D minor, 2018-11-09, Trance,  0  30
8 132 bpm, 7A / D minor, 2018-11-05, Trance,  0  1
9 138 bpm, 10B / D major, 2018-11-02, Trance,  0  20
10 138 bpm, 6B / Bb major, 2018-11-02, Trance,  0  20
11 130 bpm, 12B / E major, 2018-11-02, Trance,  1  20
12 126 bpm, 5B / Eb major, 2018-11-02, Trance,  0  20
13 138 bpm, 9A / E minor, 2018-11-02, Trance,  1  20
14 140 bpm, 6B / Bb major, 2018-11-02, Trance,  0  20
15 134 bpm, 6B / Bb major, 2018-11-02, Trance,  0  20
16 131 bpm, 11A / F# minor, 2018-11-02, Trance,  0  20
17 134 bpm, 4B / Ab major, 2018-11-02, Trance,  0  20
18 134 bpm, 6A / G minor, 2018-11-02, Trance,  1  20
19 138 bpm, 11B / A major, 2018-11-02, Trance,  0  20
20 138 bpm, 8A / A minor, 2018-11-02, Trance,  0  20
21 110 bpm, 6B / Bb major, 2018-11-02, Trance,  0  20
22 128 bpm, 1A / Ab minor, 2018-11-02, Trance,  1  20
23 128 bpm, 2A / Eb minor, 2018-11-02, Trance,  0  20
24 128 bpm, 7A / D minor, 2018-11-02, Trance,  0  20
25 128 bpm, 8A / A minor, 2018-11-02, Trance,  0  20
26 128 bpm, 5B / Eb major, 2018-11-02, Trance,  0  20
27 138 bpm, 2B / F# major, 2018-11-02, Trance,  0  20
28 138 bpm, 7A / D minor, 2018-11-02, Trance,  0  20
29 138 bpm, 7B / F major, 2018-10-12, Trance,  0  50
30 130 bpm, 7B / F major, 2018-10-12, Trance,  0  50
31 128 bpm, 9B / G major, 2018-10-08, Trance,  4  1
32 0 bpm, / , 2018-09-28, Trance,  0  25
33 0 bpm, / , 2018-09-28, Trance,  0  25
34 140 bpm, 6B / Bb major, 2018-09-03, Trance,  0  3
35 138 bpm, 6B / Bb major, 2018-09-03, Trance,  2  3
36 130 bpm, 7A / D minor, 2018-09-03, Trance,  0  3
37 132 bpm, 9A / E minor, 2018-08-31, Trance,  0  100
38 138 bpm, 10A / B minor, 2018-07-06, Trance,  0  20
39 138 bpm, 6B / Bb major, 2018-06-18, Trance,  4  1
40 124 bpm, 4B / Ab major, 2018-05-28, Trance,  0  2
41 134 bpm, 4A / F minor, 2018-05-28, Trance,  1  2
42 134 bpm, 4B / Ab major, 2018-05-25, Trance,  0  30
43 132 bpm, 9A / E minor, 2018-05-25, Trance,  1  21
44 132 bpm, 9A / E minor, 2018-05-18, Trance,  0  21
45 66 bpm, 9A / E minor, 2018-04-02, Trance,  6  1
46 138 bpm, 11B / A major, 2018-02-02, Trance,  0  100
47 137 bpm, 9A / E minor, 2018-01-03, Trance,  0  3
48 138 bpm, 8A / A minor, 2018-01-03, Trance,  0  3
49 138 bpm, 9A / E minor, 2018-01-03, Trance,  1  3
50 138 bpm, 11B / A major, 2017-12-22, Trance,  0  15
51 138 bpm, 10A / B minor, 2017-12-22, Trance,  0  26
52 138 bpm, 7A / D minor, 2017-12-22, Trance,  0  25
53 123 bpm, 12B / E major, 2017-12-15, Deep House,  0  26
54 134 bpm, 8A / A minor, 2017-12-15, Trance,  0  26
55 138 bpm, 9A / E minor, 2017-12-15, Dance,  0  26
56 138 bpm, 7A / D minor, 2017-12-15, Trance,  0  26
57 138 bpm, 5A / C minor, 2017-12-11, Trance,  1  2
58 132 bpm, 5A / C minor, 2017-12-11, Trance,  1  2
59 138 bpm, 7A / D minor, 2017-12-08, Trance,  0  25
60 138 bpm, 10A / B minor, 2017-12-01, Trance,  0  20
61 134 bpm, 12A / Db minor, 2017-12-01 (2011-04-05), Trance,  0  1
62 128 bpm, 7A / D minor, 2017-12-01 (2010-09-28), Trance,  0  24
63 138 bpm, 7A / D minor, 2017-11-20, Trance,  1  4
64 138 bpm, 8A / A minor, 2017-11-10, Trance,  0  40
65 132 bpm, 7A / D minor, 2017-11-10, Trance,  0  40
66 138 bpm, 11B / A major, 2017-11-10, Trance,  4  1
67 138 bpm, 7A / D minor, 2017-10-16, Trance,  1  1
68 134 bpm, 11A / F# minor, 2017-10-13, Trance,  0  21
69 134 bpm, 8A / A minor, 2017-10-06, Trance,  3  3
70 138 bpm, 6B / Bb major, 2017-09-29, Trance,  0  20
71 134 bpm, 4B / Ab major, 2017-09-22, Trance,  0  40
72 134 bpm, 4B / Ab major, 2017-09-22, Trance,  0  40
73 130 bpm, 12A / Db minor, 2017-09-08, Trance,  0  30
74 134 bpm, 9B / G major, 2017-08-25, Trance,  0  16
75 126 bpm, 11B / A major, 2017-07-31, Trance,  4  2
76 134 bpm, 11A / F# minor, 2017-07-31, Trance,  4  2
77 138 bpm, 4B / Ab major, 2017-07-28, Trance,  0  25
78 128 bpm, 11A / F# minor, 2017-06-30, Trance,  0  30
79 130 bpm, 10A / B minor, 2017-06-30, Trance,  0  24
80 138 bpm, 6B / Bb major, 2017-06-26, Trance,  1  2
81 138 bpm, 3A / Bb minor, 2017-05-29, Trance,  3  2
82 138 bpm, 3A / Bb minor, 2017-05-29, Trance,  0  2
83 138 bpm, 10A / B minor, 2017-05-24, Trance,  0  25
84 138 bpm, 10A / B minor, 2017-05-19, Trance,  0  20
85 138 bpm, 10A / B minor, 2017-04-28, Trance,  0  25
86 138 bpm, 4A / F minor, 2017-04-28, Trance,  0  25
87 138 bpm, 10A / B minor, 2017-04-28, Trance,  0  20
88 138 bpm, 10B / D major, 2017-04-21, Trance,  0  20
89 138 bpm, 8B / C major, 2017-04-14, Trance,  0  40
90 138 bpm, 10A / B minor, 2017-04-07, Trance,  0  10
91 138 bpm, 1A / Ab minor, 2017-04-07, Trance,  0  13
92 138 bpm, 8B / C major, 2017-04-07, Trance,  0  25
93 134 bpm, 8A / A minor, 2017-03-10, Trance,  0  15
94 128 bpm, 1B / B major, 2017-02-27, Trance,  1  2
95 127 bpm, 1B / B major, 2017-02-27, House,  0  2
96 138 bpm, 8B / C major, 2017-02-27, Trance,  3  1
97 134 bpm, 8A / A minor, 2017-02-17, Trance,  0  21
98 138 bpm, 5A / C minor, 2017-02-10, Trance,  0  20
99 138 bpm, 7B / F major, 2017-02-10, Trance,  0  20
100 138 bpm, 10A / B minor, 2017-02-10, Trance,  1  20
×

Sign in

Sign in to access your personalized pages, follow artists and labels you love, and create playlists fromyour favorite tracks.

Please wait...